| time (UTC) | temp F | wind direction | speed knots | gust knots | rain 1hr in | rain 24hr in | rain mn in | humidity % | barometer mb |
| 20260902191329 | 84 | 121 | 1.7 | 4.3 | 0.00 | 0.00 | 0.00 | 52 | 1019.8 |
| 20260902185825 | 85 | 270 | 0.0 | 3.5 | 0.00 | 0.00 | 0.00 | 50 | 1020.0 |
| 20260902184323 | 82 | 195 | 0.9 | 2.6 | 0.00 | 0.00 | 0.00 | 53 | 1020.3 |
| 20260902182822 | 88 | 240 | 1.7 | 1.7 | 0.00 | 0.00 | 0.00 | 47 | 1019.6 |
| 20260902181321 | 84 | 300 | 0.0 | 3.5 | 0.00 | 0.00 | 0.00 | 51 | 1019.8 |
| 20260902175818 | 85 | 169 | 1.7 | 5.2 | 0.00 | 0.00 | 0.00 | 49 | 1020.1 |
| 20260902174317 | 84 | 135 | 1.7 | 6.1 | 0.00 | 0.00 | 0.00 | 50 | 1020.0 |
| 20260902172812 | 87 | 90 | 1.7 | 2.6 | 0.00 | 0.00 | 0.00 | 47 | 1020.1 |
| 20260902171308 | 84 | 143 | 0.0 | 3.5 | 0.00 | 0.00 | 0.00 | 51 | 1020.0 |
| 20260902165808 | 84 | 39 | 4.3 | 5.2 | 0.00 | 0.00 | 0.00 | 52 | 1020.3 |
| 20260902164308 | 82 | 180 | 0.0 | 3.5 | 0.00 | 0.00 | 0.00 | 56 | 1020.3 |
| 20260902162807 | 82 | 14 | 0.0 | 3.5 | 0.00 | 0.00 | 0.00 | 57 | 1020.1 |
| 20260902161303 | 80 | 246 | 0.9 | 3.5 | 0.00 | 0.00 | 0.00 | 57 | 1020.5 |
| 20260902155803 | 82 | 93 | 2.6 | 4.3 | 0.00 | 0.00 | 0.00 | 57 | 1020.8 |
| 20260902154259 | 80 | 57 | 0.0 | 4.3 | 0.00 | 0.00 | 0.00 | 60 | 1020.8 |
| 20260902152754 | 78 | 162 | 0.9 | 1.7 | 0.00 | 0.00 | 0.00 | 63 | 1020.9 |
| 20260902151251 | 77 | 292 | 0.0 | 5.2 | 0.00 | 0.00 | 0.00 | 67 | 1020.8 |
| 20260902145746 | 77 | 7 | 2.6 | 4.3 | 0.00 | 0.00 | 0.00 | 65 | 1021.2 |
| 20260902144245 | 76 | 94 | 2.6 | 4.3 | 0.00 | 0.00 | 0.00 | 68 | 1020.8 |
| 20260902142742 | 75 | 176 | 1.7 | 5.2 | 0.00 | 0.00 | 0.00 | 71 | 1020.6 |
| 20260902141240 | 73 | 142 | 2.6 | 6.1 | 0.00 | 0.00 | 0.00 | 76 | 1020.3 |
| 20260902135740 | 71 | 0 | 0.9 | 7.0 | 0.00 | 0.00 | 0.00 | 77 | 1020.3 |
| 20260902134237 | 70 | 35 | 0.0 | 6.1 | 0.00 | 0.00 | 0.00 | 81 | 1020.0 |
| 20260902132732 | 71 | 123 | 2.6 | 7.0 | 0.00 | 0.00 | 0.00 | 85 | 1019.8 |
| 20260902131232 | 70 | 133 | 0.0 | 3.5 | 0.00 | 0.00 | 0.00 | 88 | 1020.3 |
| 20260902125728 | 68 | 128 | 0.0 | 3.5 | 0.00 | 0.00 | 0.00 | 90 | 1020.0 |
| 20260902124227 | 67 | 90 | 0.0 | 3.5 | 0.00 | 0.00 | 0.00 | 93 | 1020.0 |
| 20260902122723 | 66 | 65 | 1.7 | 4.3 | 0.00 | 0.00 | 0.00 | 96 | 1020.3 |
| 20260902121220 | 65 | 96 | 0.9 | 3.5 | 0.00 | 0.00 | 0.00 | 99 | 1020.5 |
| 20260902115718 | 65 | 37 | 2.6 | 4.3 | 0.00 | 0.00 | 0.00 | 99 | 1020.5 |
| 20260902114217 | 64 | 68 | 0.0 | 3.5 | 0.00 | 0.00 | 0.00 | 99 | 1020.7 |
| 20260902112712 | 62 | 111 | 0.0 | 1.7 | 0.00 | 0.00 | 0.00 | 99 | 1020.5 |
| 20260902111213 | 60 | 18 | 0.0 | 2.6 | 0.00 | 0.00 | 0.00 | 99 | 1020.1 |
| 20260902105709 | 59 | 297 | 0.0 | 0.9 | 0.00 | 0.00 | 0.00 | 99 | 1020.2 |
| 20260902104208 | 59 | 75 | 0.0 | 0.9 | 0.00 | 0.00 | 0.00 | 99 | 1020.1 |
| 20260902102703 | 59 | 90 | 0.0 | 1.7 | 0.00 | 0.00 | 0.00 | 99 | 1019.9 |
| 20260902101201 | 59 | 103 | 0.9 | 1.7 | 0.00 | 0.00 | 0.00 | 99 | 1019.6 |
| 20260902095701 | 59 | 105 | 0.0 | 2.6 | 0.00 | 0.00 | 0.00 | 99 | 1019.3 |
| 20260902094159 | 59 | 105 | 0.0 | 2.6 | 0.00 | 0.00 | 0.00 | 99 | 1019.4 |
| 20260902092654 | 59 | 84 | 0.0 | 2.6 | 0.00 | 0.00 | 0.00 | 99 | 1019.3 |
| 20260902091151 | 59 | 114 | 1.7 | 3.5 | 0.00 | 0.00 | 0.00 | 99 | 1019.2 |
| 20260902085647 | 59 | 97 | 0.0 | 3.5 | 0.00 | 0.00 | 0.00 | 99 | 1019.1 |
| 20260902084144 | 59 | 53 | 0.0 | 4.3 | 0.00 | 0.00 | 0.00 | 99 | 1019.2 |
| 20260902082640 | 59 | 75 | 0.0 | 2.6 | 0.00 | 0.00 | 0.00 | 99 | 1019.2 |
| 20260902081139 | 59 | 54 | 2.6 | 4.3 | 0.00 | 0.00 | 0.00 | 99 | 1019.0 |
| 20260902075636 | 59 | 83 | 0.0 | 3.5 | 0.00 | 0.00 | 0.00 | 99 | 1019.0 |
| 20260902074134 | 59 | 96 | 0.0 | 2.6 | 0.00 | 0.00 | 0.00 | 99 | 1019.2 |
| 20260902072633 | 59 | 9 | 1.7 | 2.6 | 0.00 | 0.00 | 0.00 | 99 | 1019.1 |
| 20260902071131 | 60 | 12 | 0.0 | 3.5 | 0.00 | 0.00 | 0.00 | 99 | 1018.8 |
| 20260902065631 | 60 | 23 | 0.9 | 4.3 | 0.00 | 0.00 | 0.00 | 99 | 1019.0 |
| 20260902064130 | 60 | 64 | 4.3 | 4.3 | 0.00 | 0.00 | 0.00 | 99 | 1018.8 |
| 20260902062625 | 60 | 107 | 1.7 | 2.6 | 0.00 | 0.00 | 0.00 | 99 | 1018.9 |
| 20260902061121 | 60 | 15 | 0.0 | 3.5 | 0.00 | 0.00 | 0.00 | 99 | 1018.8 |
| 20260902055621 | 59 | 123 | 0.0 | 1.7 | 0.00 | 0.00 | 0.00 | 99 | 1018.5 |
| 20260902054119 | 59 | 117 | 0.0 | 1.7 | 0.00 | 0.00 | 0.00 | 99 | 1018.5 |
| 20260902052614 | 60 | 15 | 0.0 | 1.7 | 0.00 | 0.00 | 0.00 | 99 | 1018.7 |
| 20260902051109 | 60 | 5 | 0.0 | 0.9 | 0.00 | 0.00 | 0.00 | 99 | 1018.6 |
| 20260902045606 | 59 | 0 | 0.0 | 2.6 | 0.00 | 0.00 | 0.00 | 99 | 1018.3 |
| 20260902044104 | 59 | 90 | 0.0 | 1.7 | 0.00 | 0.00 | 0.00 | 99 | 1018.5 |
| 20260902042559 | 60 | 40 | 0.0 | 0.0 | 0.00 | 0.00 | 0.00 | 99 | 1018.7 |
| 20260902041055 | 60 | 69 | 0.0 | 1.7 | 0.00 | 0.00 | 0.00 | 99 | 1018.3 |
| 20260902035554 | 60 | 90 | 0.0 | 2.6 | 0.00 | 0.98 | 0.98 | 99 | 1018.1 |
| 20260902034054 | 60 | 172 | 0.0 | 2.6 | 0.00 | 0.98 | 0.98 | 99 | 1017.9 |
| 20260902032553 | 60 | 90 | 0.0 | 0.9 | 0.00 | 0.98 | 0.98 | 99 | 1017.8 |
| 20260902031051 | 60 | 71 | 0.0 | 1.7 | 0.00 | 0.98 | 0.98 | 99 | 1018.0 |
| 20260902025551 | 60 | 77 | 0.0 | 2.6 | 0.00 | 0.98 | 0.98 | 99 | 1017.9 |
| 20260902024048 | 60 | 81 | 0.0 | 1.7 | 0.00 | 0.98 | 0.98 | 99 | 1017.8 |
| 20260902022544 | 60 | 90 | 1.7 | 1.7 | 0.00 | 0.98 | 0.98 | 99 | 1017.6 |
| 20260902021042 | 60 | 90 | 1.7 | 2.6 | 0.00 | 0.98 | 0.98 | 99 | 1017.5 |
| 20260902015541 | 60 | 77 | 0.9 | 0.9 | 0.00 | 0.98 | 0.98 | 99 | 1017.6 |
| 20260902014039 | 60 | 53 | 0.0 | 1.7 | 0.00 | 0.98 | 0.98 | 99 | 1017.4 |
| 20260902012536 | 61 | 101 | 0.0 | 2.6 | 0.00 | 0.98 | 0.98 | 99 | 1017.3 |
| 20260902011031 | 60 | 68 | 0.0 | 2.6 | 0.00 | 0.98 | 0.98 | 99 | 1017.5 |
| 20260902005530 | 60 | 79 | 0.0 | 1.7 | 0.00 | 0.98 | 0.98 | 99 | 1017.3 |
| 20260902004027 | 60 | 65 | 0.0 | 1.7 | 0.00 | 0.98 | 0.98 | 99 | 1017.5 |
| 20260902002525 | 60 | 127 | 0.0 | 2.6 | 0.00 | 0.98 | 0.98 | 99 | 1017.4 |
| 20260902001021 | 60 | 123 | 0.0 | 2.6 | 0.00 | 0.98 | 0.98 | 99 | 1017.4 |
| 20260901235518 | 60 | 120 | 0.0 | 2.6 | 0.00 | 0.98 | 0.98 | 99 | 1017.4 |
| 20260901234013 | 60 | 135 | 1.7 | 1.7 | 0.00 | 0.98 | 0.98 | 99 | 1016.9 |
| 20260901232511 | 60 | 107 | 3.5 | 3.5 | 0.00 | 0.98 | 0.98 | 99 | 1017.1 |
| 20260901231010 | 60 | 110 | 4.3 | 6.1 | 0.00 | 0.98 | 0.98 | 99 | 1017.0 |
| 20260901225506 | 60 | 77 | 0.0 | 6.1 | 0.00 | 0.98 | 0.98 | 99 | 1017.1 |
| 20260901224003 | 60 | 116 | 4.3 | 7.0 | 0.00 | 0.98 | 0.98 | 99 | 1016.9 |
| 20260901222502 | 60 | 94 | 1.7 | 7.0 | 0.02 | 0.98 | 0.98 | 99 | 1016.9 |
| 20260901221000 | 60 | 110 | 3.5 | 4.3 | 0.00 | 0.97 | 0.97 | 99 | 1017.1 |
| 20260901215456 | 60 | 135 | 1.7 | 3.5 | 0.02 | 0.97 | 0.97 | 99 | 1017.2 |
| 20260901213955 | 60 | 132 | 0.0 | 2.6 | 0.02 | 0.97 | 0.97 | 99 | 1017.2 |
| 20260901212450 | 60 | 119 | 3.5 | 5.2 | 0.02 | 0.96 | 0.96 | 99 | 1017.2 |
| 20260901210950 | 59 | 90 | 0.0 | 7.0 | 0.02 | 0.96 | 0.96 | 99 | 1017.1 |
| 20260901205448 | 59 | 143 | 0.0 | 4.3 | 0.05 | 0.95 | 0.95 | 99 | 1017.0 |
| 20260901203944 | 59 | 140 | 2.6 | 6.1 | 0.09 | 0.94 | 0.94 | 99 | 1016.6 |
| 20260901202441 | 59 | 106 | 4.3 | 7.8 | 0.05 | 0.91 | 0.91 | 99 | 1016.6 |
| 20260901200937 | 61 | 112 | 2.6 | 3.5 | 0.09 | 0.90 | 0.90 | 99 | 1016.9 |
| 20260901195436 | 61 | 113 | 4.3 | 7.0 | 0.09 | 0.87 | 0.87 | 99 | 1016.7 |
| 20260901193934 | 61 | 352 | 0.0 | 4.3 | 0.05 | 0.85 | 0.85 | 99 | 1016.6 |